Date,TemperatureHighF,TemperatureAvgF,TemperatureLowF,DewpointHighF,DewpointAvgF,DewpointLowF,HumidityHigh,HumidityAvg,HumidityLow,PressureMaxIn,PressureMinIn,WindSpeedMaxMPH,WindSpeedAvgMPH,GustSpeedMaxMPH,PrecipitationSumIn
2013-1-1,14.1,8.2,0.6,10.0,2.9,-2.0,90,79,60,30.27,30.11,5,0,5,0.00
2013-1-2,21.0,16.0,12.3,15.0,12.7,10.0,94,86,76,30.14,30.06,8,0,9,0.00
2013-1-3,21.0,16.8,12.8,18.4,13.7,8.7,92,87,81,30.17,30.01,7,1,8,0.00
2013-1-4,31.6,19.2,10.9,22.6,14.7,8.5,96,83,67,30.21,29.98,6,0,6,0.03
2013-1-5,29.7,18.7,7.2,22.0,14.9,4.9,96,85,71,30.23,29.91,8,0,9,0.01
2013-1-6,26.5,22.2,12.8,23.3,18.9,10.9,100,87,75,30.25,29.91,6,0,7,0.00
2013-1-7,32.7,24.2,12.7,24.9,19.1,8.3,93,81,72,30.21,29.90,8,2,8,0.01
2013-1-8,39.7,27.9,13.2,29.5,22.7,11.2,96,82,53,30.12,29.81,13,2,13,0.03
2013-1-9,34.2,30.0,20.0,29.4,23.9,16.9,88,78,64,30.46,29.81,11,1,13,0.00
2013-1-10,40.2,28.9,17.1,31.7,20.1,13.2,96,73,34,30.50,29.92,13,2,18,0.06
2013-1-11,39.5,35.3,32.7,39.4,34.9,31.7,100,99,96,29.93,29.51,11,1,12,0.24
2013-1-12,42.9,28.5,14.8,42.2,25.1,9.7,100,87,79,30.02,29.45,8,2,10,0.00
2013-1-13,16.4,13.1,5.6,10.6,8.2,2.2,87,80,70,30.20,29.97,6,0,6,0.00
2013-1-14,14.4,7.9,2.9,8.0,3.6,0.0,95,82,73,30.45,30.20,6,0,6,0.00
2013-1-15,24.4,15.2,3.3,15.6,9.4,0.2,90,78,59,30.45,29.95,5,1,6,0.00
2013-1-16,26.0,20.9,12.6,23.4,16.4,4.9,94,83,70,30.15,29.65,7,2,8,0.00
2013-1-17,12.6,5.0,0.0,4.5,-1.4,-4.0,86,74,60,30.44,30.15,6,0,7,0.00
2013-1-18,20.5,11.7,-1.8,99.9,19.4,-3.1,100,90,85,30.44,29.84,8,1,11,0.00
2013-1-19,34.7,22.7,3.3,31.7,20.2,-0.9,97,90,76,29.92,29.57,12,1,13,0.09
2013-1-20,6.0,1.1,-6.1,99.9,40.0,-4.9,87,79,68,30.28,29.92,7,0,9,0.00
2013-1-21,-5.7,-10.6,-13.8,99.9,31.3,-99.9,85,74,59,30.33,30.18,9,1,12,0.00
2013-1-22,-0.9,-8.9,-17.8,99.9,16.0,-99.9,83,73,62,30.45,30.32,4,0,5,0.00
2013-1-23,7.5,-2.7,-14.7,99.9,54.1,-4.4,86,81,74,30.55,30.19,9,0,9,0.00
2013-1-24,6.9,5.8,-1.2,99.9,-0.4,-4.1,87,70,63,30.76,30.44,7,1,8,0.00
2013-1-25,15.1,9.8,5.0,12.0,7.2,2.3,100,88,83,30.44,30.00,7,0,10,0.00
2013-1-26,22.2,13.2,2.4,15.2,8.8,0.0,91,82,71,30.46,30.25,7,0,8,0.06
2013-1-27,28.9,23.3,17.6,26.2,18.7,11.9,97,83,64,30.37,29.94,9,2,11,0.00
2013-1-28,33.1,29.4,26.7,30.4,27.9,25.9,97,94,87,29.97,29.84,8,1,9,0.12
2013-1-29,35.0,31.6,29.2,35.0,31.0,27.8,100,97,95,29.84,29.53,13,1,13,0.13
2013-1-30,29.7,19.1,10.6,28.3,17.1,8.4,96,92,88,29.64,29.44,9,1,9,0.00
2013-1-31,12.3,8.3,5.3,8.9,5.4,2.4,92,87,79,29.85,29.56,6,0,6,0.00